Skip Page Navigation
NASA JPL Caltech
NASA Logo - Jet Propulsion Laboratory + View the NASA Portal
+ Center for Near-Earth Object Studies
JPL Home Earth Solar System Stars & Galaxies Technology
JPL Solar System Dynamics
BODIES ORBITS EPHEMERIDES TOOLS PHYSICAL DATA DISCOVERY FAQ SITE MAP
JPL Small-Body Database Browser
Search: [ help ]  
(2010 DD58)
Classification: Outer Main-belt Asteroid          SPK-ID: 3510650
Ephemeris | Orbit Diagram | Orbital Elements | Mission Design | Physical Parameters | Close-Approach Data ]

[ show orbit diagram ]
Orbital Elements at Epoch 2459200.5 (2020-Dec-17.0) TDB
Reference: JPL 5 (heliocentric ecliptic J2000)
 Element Value Uncertainty (1-sigma)   Units 
e .6100275898358311 0.00047669  
a 4.362483933834088 0.0041171 au
q 1.701248373979744 0.00048182 au
i 10.72838721585889 0.0017932 deg
node 100.9539036413567 0.0021397 deg
peri 53.70481655334237 0.017685 deg
M 56.04814484541959 0.68798 deg
tp 2458682.347104662052
(2019-Jul-17.84710466)
5.6267 TDB
period 3328.121614660465
9.11
4.7114
0.0129
d
yr
n .1081691241131906 0.00015313 deg/d
Q 7.02371949368843 0.0066287 au
  Orbit Determination Parameters
   # obs. used (total)      21  
   data-arc span      90 days  
   first obs. used      2009-11-27  
   last obs. used      2010-02-25  
   planetary ephem.      DE441  
   SB-pert. ephem.      SB441-N16  
   condition code      6  
   norm. resid. RMS      .44968  
   source      ORB  
   producer      Otto Matic  
   solution date      2021-Apr-15 03:33:28  

Additional Information
 Earth MOID = .737278 au 
 Jupiter MOID = .194876 au 
 T_jup = 2.618 
[ show covariance matrix ]

Ephemeris | Orbit Diagram | Orbital Elements | Mission Design | Physical Parameters | Close-Approach Data ]

Physical Parameter Table
Parameter Symbol Value Units Sigma Reference Notes
absolute magnitude H 16.3   n/a MPO180018  

[ show close-approach data ]
Ephemeris | Orbit Diagram | Orbital Elements | Mission Design | Physical Parameters | Close-Approach Data ]
ABOUT SSD CREDITS/AWARDS PRIVACY/COPYRIGHT GLOSSARY LINKS
FirstGov 2021-May-14 08:32 UT
(server date/time)  
NASA Home Page
Site Manager:   Ryan S. Park
Webmaster  Alan B. Chamberlin